Location: Sungai Bunut
(2.6333°N, 113.7333°E)
Time: 17:02:23
(UTC+00:00)

deb Delta 139 - Visible Passes

Search period start: 11 August 2022 00:00
Search period end: 21 August 2022 00:00
Orbit: 844 x 924 km, 99.2° (Epoch: 10 August)

Date Brightness Start Highest point End Pass type
(mag) Time Alt. Az. Time Alt. Az. Time Alt. Az.
11 Aug ? 12:16:36 10° NNE 12:22:18 88° W 12:27:54 10° SSW visible
12 Aug ? 12:14:37 10° NNE 12:20:19 87° ESE 12:25:55 10° SSW visible
13 Aug ? 12:12:39 10° NNE 12:18:20 83° ESE 12:23:55 10° S visible
14 Aug ? 12:10:42 10° NNE 12:16:22 79° ESE 12:21:55 10° S visible
15 Aug ? 12:08:44 10° NNE 12:14:23 75° ESE 12:19:55 10° S visible
16 Aug ? 12:06:46 10° NNE 12:12:23 71° ESE 12:17:54 10° S visible
17 Aug ? 12:04:49 10° NNE 12:10:24 67° ESE 12:15:54 10° S visible
18 Aug ? 12:02:51 10° NNE 12:08:25 63° ESE 12:13:52 10° S visible
19 Aug ? 12:00:54 10° NNE 12:06:26 60° ESE 12:11:51 10° S visible
20 Aug ? 11:58:58 10° NNE 12:04:26 56° ESE 12:09:50 10° S visible
